Lat: 41.12N, Lon: 74.07W  ICAO: KTEB
Web Search
Monsey Weather Warning NWS WEATHER ALERT FOR THE MONSEY, NY AREA - Issued: 411 AM EDT Tue Sep 28 2021 Monsey Weather Warning  

If you are on your PC, you can easily pass this page to your phone by scanning the QR Code near the bottom with your camera.

Feedback

Monsey Hourly Weather

36 Hour Weather Scroll   °F Click to change Monsey hourly weather to Imperial units.Click to change Monsey hourly weather to Metric units. °C
Currently, Clear, temperature is 63°F17°C, dew point 57°F14°C, humidity 81%. Wind direction is S at 7 mph11 km/h with visibility of 10.00 mi16 km. Barometric pressure is 29.83 in1010 mb.

Sep 28
7:00 AM

Sep 28
8:00 AM

Sep 28
9:00 AM

Sep 28
10:00 AM

Sep 28
11:00 AM

Sep 28
NOON

Sep 28
1:00 PM

Sep 28
2:00 PM

Sep 28
3:00 PM

Sep 28
4:00 PM

Sep 28
5:00 PM

Sep 28
6:00 PM

Sep 28
7:00 PM

Sep 28
8:00 PM

Sep 28
9:00 PM

Sep 28
10:00 PM

Sep 28
11:00 PM

Sep 29
MIDNIGHT

Sep 29
1:00 AM

Sep 29
2:00 AM

Sep 29
3:00 AM

Sep 29
4:00 AM

Sep 29
5:00 AM

Sep 29
6:00 AM

Sep 29
7:00 AM

Sep 29
8:00 AM

Sep 29
9:00 AM

Sep 29
10:00 AM

Sep 29
11:00 AM

Sep 29
NOON

Sep 29
1:00 PM

Sep 29
2:00 PM

Sep 29
3:00 PM

Sep 29
4:00 PM

Sep 29
5:00 PM

Sep 29
6:00 PM
Cloudy Cloudy Cloudy Cloudy Cloudy Cloudy Cloudy Cloudy Cloudy Cloudy Cloudy Cloudy Cloudy Cloudy Cloudy Partly Cloudy Partly Cloudy Partly Cloudy Mostly Clear Mostly Clear Mostly Clear Clear Clear Clear Clear Clear Clear Clear Clear Clear Mostly Clear Mostly Clear Mostly Clear Partly Cloudy Partly Cloudy Partly Cloudy
Cloudy Cloudy Cloudy Cloudy Cloudy Cloudy Cloudy Cloudy Cloudy Cloudy Cloudy Cloudy Cloudy Cloudy Cloudy Partly Cloudy Partly Cloudy Partly Cloudy Mostly Clear Mostly Clear Mostly Clear Clear Clear Clear Clear Clear Clear Clear Clear Clear Mostly Clear Mostly Clear Mostly Clear Partly Cloudy Partly Cloudy Partly Cloudy
65°F18°C 65°F18°C 66°F19°C 68°F20°C 69°F21°C 70°F21°C 71°F22°C 72°F22°C 72°F22°C 72°F22°C 72°F22°C 70°F21°C 69°F21°C 67°F19°C 65°F18°C 64°F18°C 62°F17°C 61°F16°C 59°F15°C 58°F14°C 57°F14°C 56°F13°C 55°F13°C 55°F13°C 56°F13°C 56°F13°C 59°F15°C 61°F16°C 64°F18°C 66°F19°C 67°F19°C 69°F21°C 69°F21°C 70°F21°C 70°F21°C 68°F20°C
Rain Rain Rain Rain Rain Rain Rain Rain Rain Rain Rain Rain Rain Rain - - - - - - - - - - - - - - - - - - - - - -
52% 52% 31% 31% 31% 31% 31% 31% 35% 35% 35% 35% 35% 35% 11% 11% 11% 11% 11% 11% 5% 5% 5% 5% 5% 5% 1% 1% 1% 1% 1% 1% 0% 0% 0% 0%
58°F14°C 58°F14°C 59°F15°C 59°F15°C 60°F16°C 60°F16°C 59°F15°C 59°F15°C 58°F14°C 57°F14°C 56°F13°C 55°F13°C 54°F12°C 53°F12°C 52°F11°C 52°F11°C 51°F11°C 50°F10°C 50°F10°C 49°F9°C 48°F9°C 46°F8°C 45°F7°C 45°F7°C 44°F7°C 44°F7°C 43°F6°C 42°F6°C 41°F5°C 40°F4°C 39°F4°C 38°F3°C 38°F3°C 38°F3°C 38°F3°C 38°F3°C
78% 78% 78% 73% 73% 71% 66% 64% 61% 59% 57% 59% 59% 61% 63% 65% 67% 67% 72% 72% 72% 69% 69% 69% 64% 64% 55% 50% 43% 39% 36% 32% 32% 31% 31% 33%
SW SW SSW SSW W W WNW NW NW NW NW NW NW NNW NNW NNW NNW NNW NNW NNW NNW N N N N N N N N NNW NNW NW NW NW NW NW
6 mph 6 mph 6 mph 7 mph 7 mph 7 mph 6 mph 6 mph 6 mph 7 mph 7 mph 7 mph 7 mph 7 mph 7 mph 7 mph 7 mph 7 mph 6 mph 6 mph 6 mph 6 mph 6 mph 6 mph 5 mph 5 mph 5 mph 8 mph 8 mph 8 mph 10 mph 10 mph 10 mph 8 mph 8 mph 8 mph
10 mi16 km 10 mi16 km 10 mi16 km 10 mi16 km 10 mi16 km 10 mi16 km 10 mi16 km 10 mi16 km 10 mi16 km 10 mi16 km 10 mi16 km 10 mi16 km 10 mi16 km 10 mi16 km 10 mi16 km 10 mi16 km 10 mi16 km 10 mi16 km 10 mi16 km 10 mi16 km 10 mi16 km 10 mi16 km 10 mi16 km 10 mi16 km 10 mi16 km 10 mi16 km 10 mi16 km 10 mi16 km 10 mi16 km 10 mi16 km 10 mi16 km 10 mi16 km 10 mi16 km 10 mi16 km 10 mi16 km 10 mi16 km
Hour (EDT)
Weather
Clouds
Temperature
Precip. Type
POP
Dewpoint
Humidity
Wind Direction
Wind Speed
Visibility
POP = Probability of Precipitation. ** Indicates missing data/values from model statistics.

24 Hour Forecast

Today - Mostly cloudy. A slight chance of showers early, then a chance of showers with a slight chance of thunderstorms this morning. Showers likely with a chance of thunderstorms this afternoon. Some thunderstorms May produce gusty winds this afternoon. Highs in the lower 70s. South winds around 5 mph, becoming west around 5 mph. Chance of rain 70%.
Tonight - Mostly cloudy with a chance of showers and thunderstorms in the evening, then partly cloudy after midnight. Some thunderstorms May produce gusty winds in the evening. Lows around 50. North winds 5 to 10 mph. Chance of rain 50%.

48 Hour Forecast API Feed


Tue, Sep 28
7:00 am

Tue, Sep 28
8:00 am

Tue, Sep 28
9:00 am

Tue, Sep 28
10:00 am

Tue, Sep 28
11:00 am

Tue, Sep 28
Noon

Tue, Sep 28
1:00 pm

Tue, Sep 28
2:00 pm

Tue, Sep 28
3:00 pm

Tue, Sep 28
4:00 pm

Tue, Sep 28
5:00 pm

Tue, Sep 28
6:00 pm

Tue, Sep 28
7:00 pm

Tue, Sep 28
8:00 pm

Tue, Sep 28
9:00 pm

Tue, Sep 28
10:00 pm

Tue, Sep 28
11:00 pm

Wed, Sep 29
Midnight

Wed, Sep 29
1:00 am

Wed, Sep 29
2:00 am

Wed, Sep 29
3:00 am

Wed, Sep 29
4:00 am

Wed, Sep 29
5:00 am

Wed, Sep 29
6:00 am

Wed, Sep 29
7:00 am

Wed, Sep 29
8:00 am

Wed, Sep 29
9:00 am

Wed, Sep 29
10:00 am

Wed, Sep 29
11:00 am

Wed, Sep 29
Noon

Wed, Sep 29
1:00 pm

Wed, Sep 29
2:00 pm

Wed, Sep 29
3:00 pm

Wed, Sep 29
4:00 pm

Wed, Sep 29
5:00 pm

Wed, Sep 29
6:00 pm

Wed, Sep 29
7:00 pm

Wed, Sep 29
8:00 pm

Wed, Sep 29
9:00 pm

Wed, Sep 29
10:00 pm

Wed, Sep 29
11:00 pm

Thu, Sep 30
Midnight

Thu, Sep 30
1:00 am

Thu, Sep 30
2:00 am

Thu, Sep 30
3:00 am

Thu, Sep 30
4:00 am

Thu, Sep 30
5:00 am

Thu, Sep 30
6:00 am
Light Rain ShowerLight Rain ShowerPartly CloudyCloudyLight Rain ShowerPatchy Rain PossiblePatchy Rain PossibleLight Rain ShowerThundery Outbreaks PossibleThundery Outbreaks PossiblePatchy Rain PossiblePartly CloudyPartly CloudyPatchy Rain PossiblePartly CloudyPartly CloudyPartly CloudyPartly CloudyPartly CloudyPartly CloudyPartly CloudyPartly CloudyPartly CloudyPartly CloudySunnySunnyPartly CloudyPartly CloudySunnyPartly CloudyPartly CloudyPartly CloudyPartly CloudyPartly CloudyPartly CloudyPartly CloudyPartly CloudyPartly CloudyPartly CloudyPartly CloudyPartly CloudyPartly CloudyPartly CloudyPartly CloudyPartly CloudyPartly CloudyPartly CloudyPartly Cloudy
Light rain showers Light rain showers Partly cloudy Cloudy Light rain showers Patchy rain possible Patchy rain possible Light rain showers Thundery outbreaks possible Thundery outbreaks possible Patchy rain possible Partly cloudy Partly cloudy Patchy rain possible Partly cloudy Partly cloudy Partly cloudy Partly cloudy Partly cloudy Partly cloudy Partly cloudy Partly cloudy Partly cloudy Partly cloudy Sunny Sunny Partly cloudy Partly cloudy Sunny Partly cloudy Partly cloudy Partly cloudy Partly cloudy Partly cloudy Partly cloudy Partly cloudy Partly cloudy Partly cloudy Partly cloudy Partly cloudy Partly cloudy Partly cloudy Partly cloudy Partly cloudy Partly cloudy Partly cloudy Partly cloudy Partly cloudy
61°F
16°C
62°F
17°C
64°F
18°C
66°F
19°C
68°F
20°C
69°F
20°C
71°F
21°C
71°F
22°C
73°F
23°C
73°F
23°C
71°F
22°C
69°F
21°C
66°F
19°C
62°F
17°C
60°F
16°C
58°F
15°C
56°F
14°C
55°F
13°C
54°F
12°C
53°F
12°C
53°F
12°C
53°F
11°C
52°F
11°C
51°F
10°C
50°F
10°C
51°F
11°C
55°F
13°C
58°F
15°C
62°F
16°C
63°F
17°C
65°F
19°C
66°F
19°C
67°F
20°C
69°F
20°C
68°F
20°C
63°F
17°C
60°F
15°C
57°F
14°C
55°F
13°C
54°F
12°C
53°F
12°C
51°F
11°C
51°F
10°C
51°F
10°C
52°F
11°C
51°F
11°C
50°F
10°C
48°F
9°C
58°F
14°C
59°F
15°C
60°F
16°C
61°F
16°C
62°F
17°C
62°F
17°C
62°F
17°C
61°F
16°C
60°F
16°C
59°F
15°C
59°F
15°C
58°F
14°C
58°F
14°C
56°F
13°C
54°F
12°C
51°F
11°C
48°F
9°C
47°F
8°C
47°F
8°C
46°F
8°C
46°F
8°C
43°F
6°C
42°F
6°C
42°F
5°C
42°F
5°C
42°F
6°C
41°F
5°C
40°F
4°C
39°F
4°C
38°F
4°C
39°F
4°C
40°F
4°C
40°F
4°C
41°F
5°C
44°F
6°C
44°F
7°C
44°F
7°C
44°F
7°C
44°F
7°C
43°F
6°C
43°F
6°C
43°F
6°C
43°F
6°C
42°F
6°C
42°F
6°C
42°F
6°C
42°F
6°C
41°F
5°C
29.8 in
1009 mb
29.83 in
1010 mb
29.83 in
1010 mb
29.83 in
1010 mb
29.83 in
1010 mb
29.83 in
1010 mb
29.83 in
1010 mb
29.8 in
1009 mb
29.8 in
1009 mb
29.8 in
1009 mb
29.8 in
1009 mb
29.8 in
1009 mb
29.83 in
1010 mb
29.85 in
1011 mb
29.88 in
1012 mb
29.88 in
1012 mb
29.88 in
1012 mb
29.91 in
1013 mb
29.91 in
1013 mb
29.91 in
1013 mb
29.91 in
1013 mb
29.91 in
1013 mb
29.94 in
1014 mb
29.94 in
1014 mb
29.97 in
1015 mb
30 in
1016 mb
30 in
1016 mb
30 in
1016 mb
30 in
1016 mb
30 in
1016 mb
29.97 in
1015 mb
29.97 in
1015 mb
29.94 in
1014 mb
29.94 in
1014 mb
29.94 in
1014 mb
29.97 in
1015 mb
30 in
1016 mb
30 in
1016 mb
30.03 in
1017 mb
30.03 in
1017 mb
30.03 in
1017 mb
30.03 in
1017 mb
30.03 in
1017 mb
30.06 in
1018 mb
30.06 in
1018 mb
30.06 in
1018 mb
30.06 in
1018 mb
30.09 in
1019 mb
90%90%86%82%81%80%74%71%65%61%66%67%73%80%81%77%74%76%78%78%76%70%70%71%74%70%60%50%43%40%38%37%36%36%41%49%57%63%65%67%69%72%73%73%71%71%75%77%
SWSWWSWWWWNWWNWWNWWNWWNWWNWNWNNWNNNWNNWNNWNNWNNNNWNNNNNNNNNNNWNNWNWNWNWNNWNNWNNWNNWNNWNNWNNWNNWNWNWNWNWNNW
4 mph
6 km/h
5 mph
8 km/h
5 mph
9 km/h
7 mph
11 km/h
8 mph
12 km/h
7 mph
12 km/h
8 mph
12 km/h
7 mph
12 km/h
7 mph
12 km/h
9 mph
14 km/h
9 mph
14 km/h
8 mph
13 km/h
7 mph
12 km/h
7 mph
12 km/h
6 mph
10 km/h
6 mph
10 km/h
6 mph
9 km/h
6 mph
10 km/h
6 mph
9 km/h
6 mph
10 km/h
6 mph
10 km/h
8 mph
13 km/h
7 mph
12 km/h
6 mph
10 km/h
6 mph
10 km/h
6 mph
10 km/h
7 mph
11 km/h
8 mph
13 km/h
8 mph
13 km/h
8 mph
13 km/h
7 mph
12 km/h
7 mph
11 km/h
8 mph
13 km/h
9 mph
15 km/h
9 mph
15 km/h
9 mph
14 km/h
6 mph
10 km/h
5 mph
8 km/h
5 mph
8 km/h
6 mph
10 km/h
5 mph
9 km/h
5 mph
8 km/h
4 mph
7 km/h
4 mph
6 km/h
4 mph
7 km/h
7 mph
11 km/h
8 mph
13 km/h
7 mph
12 km/h
79%75%0%0%86%89%64%79%0%0%78%0%0%68%0%0%0%0%0%0%0%0%0%0%0%0%0%0%0%0%0%0%0%0%0%0%0%0%0%0%0%0%0%0%0%0%0%0%
6 mi
10 km
6 mi
10 km
6 mi
10 km
6 mi
10 km
6 mi
10 km
6 mi
10 km
6 mi
10 km
6 mi
10 km
6 mi
9 km
6 mi
9 km
6 mi
10 km
6 mi
10 km
6 mi
10 km
6 mi
10 km
6 mi
10 km
6 mi
10 km
6 mi
10 km
6 mi
10 km
6 mi
10 km
6 mi
10 km
6 mi
10 km
6 mi
10 km
6 mi
10 km
6 mi
10 km
6 mi
10 km
6 mi
10 km
6 mi
10 km
6 mi
10 km
6 mi
10 km
6 mi
10 km
6 mi
10 km
6 mi
10 km
6 mi
10 km
6 mi
10 km
6 mi
10 km
6 mi
10 km
6 mi
10 km
6 mi
10 km
6 mi
10 km
6 mi
10 km
6 mi
10 km
6 mi
10 km
6 mi
10 km
6 mi
10 km
6 mi
10 km
6 mi
10 km
6 mi
10 km
6 mi
10 km

Day/Time
Weather
Condition
Temperature
Dew Point
Pressure
Humidity
Wind Direction
Wind Speed
Prob Precip %
Visibility
Prob Precip % = Probability of Precipitation.